sat.trackr.live / text

‹ back to catalog

STARLINK-11382 [DTC]

NORAD 62881 · 2025-024C

PAYLOAD ACTIVE UNKNOWN

§ Identity

Operator
Country
US
Launch date
2025-02-04
Launch site
AFETR
Launch vehicle
Mass (kg)
RCS (m²)

Purposes: comms

External: N2YO · Heavens-Above · Gunter

§ Orbital elements

Epoch: 2026-05-25T03:59:39.342048Z

Period
91.67 min
Inclination
43.0000°
Eccentricity
0.0001198
Mean motion
15.70898237 rev/d
Perigee alt
355.5 km
Apogee alt
357.1 km
Semi-major
6,734.5 km
B*
2.2423e-3
RAAN
80.5491°
Arg perigee
282.3045°
Mean anomaly
77.7689°
Rev number
7,549

§ Raw data

STARLINK-11382 [DTC]1 62881U 25024C   26145.16642757  .00298577  00000+0  22423-2 0  99962 62881  43.0000  80.5491 0001198 282.3045  77.7689 15.70898237 75493

JSON: /api/v1/satellites/62881 · /tle

For live sub-satellite position, see the globe view (requires WebGL).

§ Visibility from observer

Set your observer location to see the next 7 days of passes ≥ 10°. The values pass through the URL so the page stays shareable.

No JS? Fill the form by hand. The geolocation button needs JavaScript.